Wind_Speed
1 1 1 1 1 1 2 3 2 2 2 2 2 2 3 3 3 3 3 3 3 3 3 3 3 2 2 2 1 1 1 1 1 1 2 2 2 2 2 2 2 2 2
1 1 1 1 1 1 1 2 2 1 1 1 1 1 1 2 2 2 2 2 2 2 2 2 2 2 2 1 1 1 1 1 1 2 2 2 2 2 2 2 2 2 2
2 2 2 2 2 2 2 2 1 1 1 1 1 1 0 1 1 2 2 2 2 1 1 2 2 1 1 2 1 0 1 2 2 2 3 3 3 3 3 3 3 3 3
3 3 2 3 3 3 3 3 3 2 2 2 2 1 1 1 1 1 2 2 2 1 1 2 2 2 1 1 1 1 2 3 4 4 4 4 4 4 4 5 5 4 5
4 4 4 4 4 4 4 4 4 3 4 4 3 3 2 2 1 2 2 2 2 2 2 2 2 2 2 2 2 2 3 4 5 5 5 6 6 6 6 6 6 6 6
5 5 5 4 4 5 5 5 5 5 5 5 4 4 4 4 4 4 4 4 4 4 3 3 3 3 3 4 4 4 4 5 6 6 7 7 8 8 8 8 8 8 8
5 5 5 5 5 6 6 6 6 6 6 6 6 6 6 6 6 6 6 5 5 5 5 5 5 5 5 5 5 6 6 6 7 8 8 9 9 9 10 10 10 9 10
7 7 6 7 7 7 7 7 8 8 8 8 8 8 8 8 8 8 8 7 7 7 7 8 7 7 7 7 7 7 7 7 8 8 9 10 10 10 11 11 11 12 12
8 7 7 7 8 8 9 10 10 10 10 10 10 10 11 11 10 10 10 10 10 10 10 10 9 10 10 10 10 10 10 10 10 10 11 11 11 12 12 13 14 14 15
8 8 8 9 9 10 10 10 11 11 11 12 12 13 13 13 13 13 13 13 13 12 11 12 12 12 12 12 12 12 12 12 12 13 13 13 13 14 14 15 15 16 16
8 8 8 9 10 10 11 12 12 12 12 13 13 14 14 15 15 15 15 15 15 15 14 14 14 14 14 14 14 14 14 14 15 15 15 16 16 16 16 17 17 17 18
9 9 10 10 11 11 12 12 13 13 13 14 15 16 16 16 16 17 17 17 17 18 18 17 17 18 17 17 17 17 17 17 18 18 18 18 18 18 19 19 20 20 20
10 10 11 12 12 12 12 13 14 15 15 15 16 17 17 17 18 18 19 19 19 19 19 20 20 21 21 20 20 20 21 20 20 20 20 21 21 21 22 22 22 23 23
12 12 13 13 14 14 14 15 16 17 17 17 17 17 17 18 19 19 20 21 20 21 21 21 22 22 23 22 22 22 21 22 22 23 23 23 23 24 24 24 25 25 25
13 14 14 14 14 15 15 16 16 17 18 18 18 18 18 19 20 21 22 22 23 22 22 23 23 24 25 24 23 24 23 23 24 24 25 25 26 26 26 26 26 26 27
13 14 14 14 15 15 16 16 17 17 18 19 19 20 20 20 20 21 22 22 22 22 23 24 24 24 24 24 24 24 24 24 25 26 27 27 28 28 28 28 28 28 28
13 13 14 15 16 16 17 17 18 18 19 20 20 20 21 21 21 21 22 22 22 22 21 22 24 25 24 24 25 25 26 26 26 26 27 29 30 30 30 30 30 29 29
14 14 15 16 17 17 18 18 19 19 20 20 21 21 22 22 22 22 23 24 24 24 23 23 24 26 25 25 26 26 26 27 28 27 29 29 30 30 30 30 31 31 32
15 16 16 17 17 18 18 19 19 20 20 21 22 22 22 23 23 23 23 24 24 25 25 25 25 27 27 27 27 27 27 28 29 30 31 31 30 30 31 32 33 33 33
16 17 17 18 18 18 18 19 20 21 22 22 23 23 23 24 24 24 25 25 25 26 25 26 26 27 29 29 29 28 28 29 29 30 31 30 30 30 31 32 33 34 34
16 17 18 19 19 19 19 20 20 22 23 24 24 24 24 25 24 24 25 25 26 27 27 28 28 28 30 29 29 29 30 30 31 31 30 29 30 31 32 33 34 35 35
17 18 19 19 20 20 20 21 22 23 23 23 23 24 24 24 24 25 26 26 26 27 27 27 28 29 29 29 29 30 30 30 31 31 31 31 32 32 33 34 35 35 36
19 19 19 19 20 21 21 22 23 23 23 23 23 24 24 25 25 26 26 26 27 27 27 26 27 28 29 29 29 30 30 30 31 32 32 32 33 33 34 36 36 37 37
19 20 20 21 21 22 22 23 23 24 24 23 23 23 24 24 24 25 26 26 26 26 26 26 27 28 29 29 29 30 31 31 32 33 33 34 35 35 36 36 37 37 37
20 21 21 22 23 23 23 23 23 23 23 23 23 23 23 23 24 24 25 25 25 26 26 26 27 28 28 29 30 31 31 32 32 33 34 35 36 36 37 37 38 38 39
22 22 23 23 23 24 24 24 23 23 23 22 23 23 23 22 23 24 24 25 25 25 26 27 27 28 29 30 31 32 33 34 34 35 35 36 36 36 37 38 39 39 40
Wind_Direction
300 282 171 159 159 141 131 138 140 127 111 99 101 97 80 71 62 58 58 60 66 72 71 67 60 50 47 53 71 132 148 139 152 173 190 201 211 219 215 226 234 238 242
307 261 248 210 205 203 175 161 156 153 121 99 116 100 73 63 53 44 39 47 48 44 42 48 45 41 38 24 22 131 183 195 196 194 200 214 223 225 227 239 251 254 261
288 282 266 243 235 225 218 206 195 207 206 208 197 200 77 49 31 28 18 20 24 21 19 16 11 17 25 19 10 309 238 227 223 216 218 226 233 239 245 254 256 257 261
281 275 274 258 244 235 236 230 226 236 251 246 245 252 259 282 331 339 342 344 346 348 352 343 334 333 330 332 331 302 268 250 243 240 238 240 243 247 255 260 263 263 262
289 272 271 267 255 246 251 246 241 252 258 258 259 267 269 279 293 299 300 300 303 307 314 317 318 314 302 300 300 297 285 269 253 248 251 253 254 254 258 262 265 264 265
286 275 269 269 263 258 259 257 257 261 264 262 266 273 275 279 280 288 294 292 294 293 294 294 299 298 291 291 291 289 285 279 265 258 258 262 263 262 261 264 268 267 266
277 275 273 272 272 268 263 258 262 265 266 267 268 271 276 279 279 281 281 278 282 283 287 286 284 286 285 282 284 284 283 278 273 269 265 266 268 266 266 268 267 267 266
272 271 266 266 269 269 268 265 265 266 266 267 268 270 274 279 280 282 280 274 276 279 280 280 279 279 280 281 282 281 282 280 277 274 270 268 269 272 271 269 269 268 269
267 267 267 270 270 269 270 267 268 269 270 269 269 271 274 276 276 276 277 273 274 277 277 276 276 277 278 276 275 277 280 279 279 277 275 274 272 273 275 274 273 272 271
267 269 271 271 273 277 277 275 273 273 273 274 273 272 274 275 275 274 275 274 275 276 275 275 274 278 278 276 274 276 276 276 276 275 275 275 276 275 276 275 276 274 273
278 275 276 277 281 281 279 277 278 279 277 276 275 274 273 273 272 274 275 275 275 274 274 276 277 278 275 275 275 273 273 274 275 274 274 275 276 276 276 276 277 275 275
286 285 283 283 285 284 280 279 279 280 282 279 276 275 276 274 273 273 275 275 274 273 272 274 276 277 276 277 276 274 274 276 277 276 274 274 274 274 274 276 277 277 277
291 291 289 285 284 285 282 282 282 282 283 283 280 279 277 278 278 278 277 276 274 273 272 272 274 275 275 277 275 274 274 274 276 275 275 275 274 274 274 274 275 275 275
290 289 290 288 286 285 284 286 285 282 282 284 283 282 281 281 280 280 279 278 277 276 277 274 274 273 274 275 276 275 275 274 276 274 274 275 275 275 275 275 274 274 274
292 289 290 289 289 289 288 289 289 285 284 286 286 286 284 284 283 283 281 280 280 277 277 277 274 271 273 273 274 275 275 276 277 277 276 276 276 277 276 276 276 275 275
296 294 294 293 294 293 294 296 293 289 289 289 288 288 288 288 287 287 287 286 286 283 279 279 278 276 275 273 276 277 277 276 276 275 277 277 277 276 274 274 275 275 276
303 301 298 295 295 294 293 294 292 290 290 291 291 291 289 288 289 289 288 286 285 287 288 285 283 280 278 277 276 276 276 276 275 277 279 279 278 276 275 274 275 275 275
306 305 302 299 297 297 296 294 292 292 293 293 291 290 290 290 290 288 288 287 286 286 287 285 283 283 282 280 278 276 278 277 277 279 281 281 279 278 276 275 276 277 275
306 303 302 301 298 296 296 294 292 294 294 293 292 291 291 291 291 290 290 288 286 285 288 288 286 286 283 281 280 279 280 279 280 281 281 279 278 277 277 276 277 278 278
306 304 304 303 301 300 299 297 295 293 293 291 291 292 292 292 291 290 290 288 287 287 289 289 286 286 285 283 282 283 283 282 282 282 282 281 280 280 280 278 278 278 278
313 310 307 307 306 304 301 300 300 298 295 292 292 292 292 291 291 293 292 290 289 288 287 287 286 285 284 284 282 282 283 283 283 284 283 283 283 282 281 280 279 278 278
317 315 314 312 309 306 305 304 302 301 299 297 296 295 294 294 295 295 295 294 293 289 287 286 284 284 285 286 285 284 284 283 283 283 283 283 283 283 281 281 280 280 279
315 314 313 314 312 309 307 306 305 304 303 301 299 297 296 296 296 297 296 295 294 291 288 287 285 285 285 286 286 286 285 284 284 284 285 285 285 284 284 283 283 283 282
313 313 314 314 313 312 310 308 306 305 304 303 302 302 301 298 298 299 298 298 296 293 291 289 288 288 286 287 287 285 284 285 285 286 286 286 286 285 285 285 285 285 284
311 313 313 314 313 312 311 310 310 309 308 307 305 304 303 301 299 300 300 299 298 295 293 292 291 291 288 287 287 287 288 288 289 289 288 288 289 289 289 287 287 287 285
312 313 312 313 314 314 314 312 310 308 308 307 306 305 304 303 302 301 301 301 301 299 297 295 293 293 293 293 291 290 290 291 291 291 290 291 291 291 291 291 289 288 288
Height
5904 5904 5905 5905 5906 5906 5906 5907 5907 5907 5907 5907 5907 5908 5908 5908 5908 5908 5907 5907 5907 5907 5907 5907 5907 5907 5907 5907 5907 5907 5908 5908 5908 5909 5909 5909 5910 5910 5910 5910 5911 5911 5911
5904 5904 5905 5905 5906 5906 5907 5907 5907 5908 5908 5908 5908 5908 5908 5908 5908 5908 5908 5908 5908 5908 5908 5908 5907 5907 5907 5907 5907 5907 5907 5908 5908 5908 5909 5909 5909 5909 5910 5910 5910 5910 5910
5904 5905 5905 5906 5906 5906 5907 5907 5908 5908 5908 5908 5908 5908 5909 5909 5909 5909 5908 5908 5908 5908 5908 5908 5908 5907 5907 5907 5907 5907 5907 5907 5908 5908 5908 5908 5909 5909 5909 5909 5909 5909 5909
5904 5905 5905 5906 5906 5906 5907 5907 5908 5908 5908 5908 5909 5909 5909 5908 5908 5908 5908 5908 5908 5908 5908 5908 5907 5907 5907 5907 5907 5906 5906 5907 5907 5907 5907 5907 5908 5908 5908 5908 5908 5908 5908
5904 5904 5905 5905 5905 5906 5907 5907 5908 5908 5908 5908 5908 5909 5908 5908 5908 5908 5908 5908 5908 5908 5908 5907 5907 5907 5907 5906 5906 5906 5906 5906 5906 5906 5906 5906 5906 5906 5907 5907 5907 5907 5907
5903 5904 5905 5905 5905 5906 5906 5907 5907 5907 5908 5908 5908 5908 5908 5908 5908 5908 5907 5907 5907 5907 5907 5907 5906 5906 5906 5906 5905 5905 5905 5904 5904 5904 5905 5905 5905 5905 5905 5905 5905 5905 5905
5902 5903 5904 5904 5904 5905 5905 5906 5906 5906 5907 5907 5907 5907 5907 5907 5907 5906 5906 5906 5906 5906 5906 5906 5905 5905 5905 5904 5904 5904 5903 5903 5903 5903 5903 5903 5903 5903 5903 5903 5903 5903 5903
5901 5902 5902 5903 5903 5904 5904 5904 5905 5905 5905 5905 5906 5906 5906 5906 5905 5904 5904 5904 5904 5904 5904 5904 5904 5904 5903 5903 5903 5902 5902 5901 5901 5901 5901 5901 5900 5900 5900 5900 5900 5900 5900
5900 5900 5901 5901 5901 5902 5902 5903 5903 5903 5904 5904 5904 5904 5904 5904 5904 5903 5903 5902 5902 5902 5902 5901 5901 5901 5901 5901 5900 5900 5899 5899 5899 5899 5898 5898 5898 5897 5897 5897 5897 5897 5896
5898 5899 5899 5899 5899 5900 5900 5900 5901 5901 5901 5901 5902 5902 5902 5901 5901 5901 5900 5900 5900 5899 5899 5899 5899 5898 5898 5897 5897 5897 5896 5896 5896 5896 5895 5895 5895 5894 5894 5894 5893 5893 5893
5897 5897 5897 5898 5898 5898 5898 5898 5899 5898 5898 5898 5899 5898 5898 5898 5897 5897 5897 5897 5897 5896 5896 5896 5895 5894 5894 5894 5894 5893 5893 5893 5892 5892 5892 5891 5891 5890 5890 5890 5889 5889 5888
5895 5896 5896 5896 5896 5896 5896 5896 5896 5896 5895 5895 5895 5895 5894 5894 5894 5894 5894 5893 5893 5893 5892 5892 5891 5890 5890 5890 5890 5889 5889 5888 5888 5888 5887 5887 5886 5886 5886 5885 5885 5884 5883
5894 5894 5894 5894 5893 5893 5893 5893 5893 5892 5892 5892 5891 5891 5891 5890 5890 5890 5889 5889 5889 5888 5888 5888 5887 5886 5886 5885 5885 5884 5884 5883 5883 5883 5882 5882 5881 5881 5880 5879 5879 5878 5878
5892 5891 5891 5891 5891 5890 5890 5890 5889 5889 5888 5888 5887 5887 5887 5886 5886 5886 5885 5884 5884 5883 5883 5883 5882 5881 5881 5880 5879 5878 5878 5878 5877 5877 5877 5876 5875 5875 5874 5873 5872 5872 5871
5889 5888 5888 5888 5888 5887 5886 5886 5885 5885 5884 5884 5883 5883 5882 5882 5881 5881 5880 5879 5879 5878 5877 5877 5876 5875 5875 5874 5874 5873 5872 5872 5872 5871 5870 5869 5869 5868 5867 5867 5866 5865 5864
5886 5885 5885 5885 5884 5884 5883 5882 5881 5881 5880 5880 5879 5878 5877 5877 5876 5875 5874 5873 5872 5872 5871 5871 5870 5869 5868 5867 5867 5867 5866 5866 5865 5864 5863 5862 5862 5860 5860 5859 5858 5857 5856
5883 5882 5882 5881 5881 5880 5879 5879 5878 5877 5876 5875 5874 5873 5872 5871 5870 5870 5869 5868 5867 5866 5866 5865 5863 5862 5861 5861 5860 5859 5859 5858 5857 5857 5856 5855 5853 5852 5852 5851 5850 5850 5849
5880 5880 5879 5878 5877 5876 5875 5875 5874 5872 5871 5870 5869 5868 5867 5866 5865 5864 5863 5862 5861 5860 5859 5858 5857 5856 5855 5854 5853 5853 5852 5851 5850 5849 5848 5847 5845 5844 5843 5842 5842 5841 5840
5878 5877 5876 5875 5874 5873 5872 5871 5869 5868 5867 5865 5864 5863 5862 5861 5859 5858 5857 5856 5854 5853 5852 5851 5850 5849 5848 5847 5846 5845 5844 5843 5842 5841 5840 5838 5837 5836 5835 5834 5833 5832 5831
5875 5874 5873 5871 5870 5869 5868 5866 5865 5864 5862 5861 5859 5858 5856 5855 5854 5852 5851 5849 5848 5847 5846 5845 5843 5842 5841 5840 5839 5838 5836 5835 5834 5832 5831 5830 5828 5827 5826 5825 5824 5822 5821
5871 5870 5869 5868 5866 5865 5863 5862 5860 5858 5857 5855 5853 5852 5850 5849 5847 5846 5844 5843 5841 5840 5839 5837 5836 5835 5833 5832 5831 5830 5828 5827 5825 5824 5823 5821 5820 5818 5816 5815 5814 5812 5811
5869 5867 5865 5864 5862 5860 5858 5856 5855 5853 5851 5849 5848 5846 5844 5843 5841 5839 5838 5836 5834 5832 5831 5829 5828 5827 5826 5824 5823 5821 5819 5818 5817 5815 5814 5812 5811 5809 5807 5805 5803 5802 5800
5866 5864 5862 5860 5858 5856 5854 5852 5850 5847 5846 5843 5841 5840 5838 5836 5835 5833 5831 5828 5826 5824 5823 5822 5821 5819 5818 5816 5815 5813 5811 5809 5807 5805 5804 5802 5801 5799 5797 5795 5793 5791 5789
5863 5861 5858 5856 5854 5852 5849 5847 5845 5842 5840 5838 5836 5834 5832 5830 5828 5826 5824 5822 5819 5817 5815 5814 5813 5812 5810 5808 5806 5804 5802 5800 5798 5796 5794 5792 5790 5788 5786 5784 5782 5780 5778
5859 5857 5854 5852 5850 5847 5845 5842 5840 5837 5835 5832 5830 5828 5826 5824 5822 5820 5818 5816 5814 5811 5809 5807 5806 5804 5801 5800 5797 5795 5793 5791 5789 5787 5784 5782 5779 5777 5775 5773 5770 5768 5766
5855 5852 5850 5848 5845 5842 5840 5837 5835 5832 5830 5828 5825 5823 5820 5818 5816 5814 5812 5810 5808 5805 5803 5801 5798 5796 5794 5792 5789 5787 5784 5782 5780 5777 5774 5772 5769 5767 5764 5761 5759 5756 5754